Location: ?ejetice
(49.2528°N, 14.0216°E)
Time: 16:15:11
(UTC+00:00)

Daily predictions for brighter satellites

Satellite Brightness Start Highest point End
(mag) Time Altitude Azimuth Time Altitude Azimuth Time Altitude Azimuth
CZ-4C R/B 3.0 15:27:36 10° NW 15:34:30 64° NE 15:42:43 10° ESE
ATLAS 2AS CENTAUR R/B 4.1 15:30:13 10° WNW 15:36:40 28° N 15:42:50 10° NE
ADEOS 3.7 15:32:25 10° SSE 15:37:39 86° WSW 15:42:55 10° NNW
Cosmos 841 Rocket 4.0 15:33:12 10° S 15:37:58 40° ESE 15:42:46 10° NE
Cosmos 2034 Rocket 4.0 15:32:15 10° S 15:38:23 76° E 15:44:33 10° NNE
Cosmos 1697 Rocket 3.1 15:36:22 10° NNW 15:41:59 73° WSW 15:47:34 10° SSE
Cosmos 1743 Rocket 3.5 15:37:38 10° N 15:41:59 85° E 15:46:19 10° S
USA 307 3.4 15:38:34 10° WNW 15:42:41 45° N 15:46:47 10° E
Cosmos 372 Rocket 4.1 15:38:43 10° NNW 15:43:55 60° ENE 15:49:07 10° SE
Cosmos 2322 Rocket 3.4 15:39:49 10° N 15:44:13 22° NE 15:48:35 10° E
CZ-4C R/B 3.1 15:40:57 10° NNE 15:44:46 85° ESE 15:48:20 10° SSW
Meteor PRIRODA 3.6 15:41:14 10° SSE 15:44:48 59° ENE 15:48:22 10° N
SJ 16-02 4.4 15:42:52 10° WNW 15:45:12 14° W 15:47:34 10° SW
Cosmos 1937 Rocket 3.6 15:39:57 10° NNW 15:45:19 90° NE 15:50:38 10° SSE
ERBS 3.9 15:42:48 10° WNW 15:45:19 21° N 15:47:51 10° NE
USA 234 3.4 15:40:08 10° E 15:46:34 63° NNE 15:53:01 10° WNW
Lacrosse 5 rocket 1.4 15:42:52 10° NW 15:46:39 53° NNE 15:50:38 10° ESE
Cosmos 1980 Rocket 2.2 15:42:30 10° NNW 15:48:12 72° ENE 15:53:48 10° SE
Cosmos 2026 Rocket 4.0 15:46:08 10° N 15:52:14 61° ENE 15:58:12 10° SSE
Cosmos 1666 Rocket 4.2 15:49:04 10° N 15:53:08 33° ENE 15:57:07 10° SE
NOSS 2-2 (D) 4.5 15:48:06 10° NW 15:53:12 84° SW 16:00:26 10° SE
Cosmos 1809 Rocket 4.4 15:47:51 10° N 15:53:57 70° ENE 16:00:01 10° SSE
Cosmos 1125 Rocket 4.4 15:50:02 10° N 15:54:28 26° NE 15:58:52 10° ESE
CORIOLIS 4.4 15:50:03 10° SE 15:55:13 49° ENE 16:00:27 10° N
Cosmos 1634 Rocket 4.2 15:49:14 10° SSE 15:55:19 51° E 16:01:26 10° NNE
Cosmos 2195 Rocket 4.5 15:50:41 10° N 15:56:52 77° E 16:03:06 10° SSE
H-2A R/B 2.6 15:55:05 10° SE 15:59:33 32° ENE 16:03:57 10° N
Cosmos 2369 3.9 15:54:04 10° NNW 15:59:50 79° WSW 16:05:32 10° SSE
Cosmos 1812 3.5 15:58:58 10° SSE 16:02:22 31° E 16:05:48 10° NNE
PSLV R/B 4.4 16:00:23 10° SE 16:03:42 32° ENE 16:07:05 10° N
ATLAS CENTAUR R/B 3.8 16:02:04 10° NW 16:04:27 14° NNW 16:06:55 10° NNE
Okean O Rocket 2.9 16:01:25 10° ESE 16:04:37 20° ENE 16:07:49 10° NNE
Cosmos 2221 4.1 16:01:00 10° SW 16:04:58 36° WNW 16:09:00 10° N
SL-16 R/B 2.8 16:00:02 10° NNW 16:05:12 34° NE 16:10:20 10° ESE
USA 308 3.2 16:01:19 10° WNW 16:05:29 49° NNE 16:09:19 12° E
CZ-2C R/B 3.1 16:01:34 10° S 16:06:23 77° WSW 16:11:10 10° NNW
Sich 1 2.9 16:04:34 10° N 16:08:54 81° ENE 16:13:14 10° SSE
Cosmos 2082 Rocket 2.3 16:03:27 10° SSW 16:09:02 63° ESE 16:14:39 10° NNE
Cosmos 540 Rocket 3.5 16:04:53 10° SSW 16:09:59 88° WNW 16:15:09 10° NNE
ARGOS 4.0 16:06:12 10° ESE 16:10:43 28° ENE 16:15:13 10° N
Meteor 1-5 Rocket 4.5 16:05:00 10° N 16:10:50 52° ENE 16:16:34 10° SSE
FengYun 1-2 T 4.3 16:08:33 10° SSE 16:14:08 89° ENE 16:19:42 10° NNW
COSMOS 2455 2.9 16:09:40 10° SSW 16:15:41 82° ESE 16:21:45 10° NE
SMAP 3.0 16:12:12 10° SSE 16:16:51 78° ENE 16:21:31 10° NNW
NOAA 6 4.0 16:13:12 10° SSE 16:18:20 79° ENE 16:23:29 10° NNW
deb Chang Zheng 4 4.4 16:16:53 10° ESE 16:20:36 29° ENE 16:24:19 10° N
Cosmos 1805 Rocket 4.1 16:17:07 10° NNW 16:21:24 60° W 16:25:40 10° S
Cosmos 1933 3.8 16:18:08 10° SSW 16:22:08 62° WNW 16:26:09 10° N
Cosmos 2278 3.7 16:16:34 10° NNW 16:22:19 90° W 16:28:01 10° SSE
Cosmos 1833 Rocket 3.3 16:16:57 10° SW 16:22:29 56° NW 16:28:03 10° NNE
Cosmos 2333 Rocket 3.6 16:20:24 10° N 16:24:18 18° NE 16:26:02 16° ENE
CZ-4B DEB 4.1 16:22:00 10° SSE 16:27:29 74° ENE 16:32:58 10° NNW
CZ-2C R/B 3.3 16:25:20 10° NNE 16:29:49 30° E 16:34:21 10° SSE
USA 305 3.0 16:25:43 10° WNW 16:29:56 60° NNE 16:32:51 19° E
Cosmos 1655 Rocket 4.3 16:25:20 10° N 16:31:26 43° ENE 16:37:26 10° SE
Cosmos 1356 Rocket 4.3 16:28:40 10° N 16:32:20 28° ENE 16:36:02 10° SE
Cosmos 2219 Rocket 3.7 16:28:47 10° N 16:32:23 17° NE 16:33:20 16° NE
CZ-4B R/B 4.2 16:29:17 10° S 16:33:00 41° W 16:36:35 10° NNW
Cosmos 1500 3.8 16:30:54 10° NNW 16:34:35 56° W 16:38:13 10° S
Meteor 1-14 Rocket 4.3 16:29:00 10° N 16:34:54 84° ENE 16:40:52 10° SSE
Cosmos 44 Rocket 3.3 16:31:42 10° NW 16:36:40 89° SW 16:41:27 10° SE
Meteor 2-16 Rocket 4.4 16:32:57 10° N 16:39:06 81° ENE 16:45:15 10° SSE
Cosmos 1515 Rocket 4.3 16:37:42 10° SSE 16:41:36 31° E 16:43:15 24° NE
COSMOS 2406 3.9 16:36:32 10° SW 16:42:08 52° NW 16:47:45 10° NNE
Cosmos 1814 Rocket 3.9 16:37:38 10° SSW 16:42:51 84° ESE 16:47:38 12° NNE
Cosmos 921 Rocket 3.3 16:40:02 10° S 16:44:00 42° ESE 16:45:57 25° NE
Cosmos 1570 Rocket 3.9 16:44:28 10° SSW 16:49:43 84° ESE 16:54:14 14° NNE
MOS 1-B Rocket 4.1 16:45:11 10° NNE 16:51:10 64° ESE 16:58:03 10° S
CZ-4B R/B 3.0 16:48:13 10° SSE 16:53:34 68° ENE 16:58:51 10° N
USA 267 3.2 16:50:26 22° ENE 16:54:56 80° SE 17:01:29 10° SW
Cosmos 2298 Rocket 3.9 16:49:48 10° NNW 16:55:10 79° ENE 17:00:30 10° SSE
Cosmos 371 Rocket 4.3 16:51:24 10° N 16:55:08 26° NE 16:55:08 26° NE
CZ-2D R/B 3.4 16:52:07 10° S 16:55:56 76° W 16:59:46 10° NNW
MOS 1-B 4.3 16:52:39 10° SSE 16:58:26 87° WSW 17:04:17 10° NNW
ATLAS CENTAUR R/B 2.9 16:51:21 10° WSW 16:59:35 57° NNW 17:01:30 29° NE
COSMO-SKYMED 1 2.7 16:59:10 28° NE 17:01:11 51° E 17:05:24 10° S
Cosmos 1633 Rocket 3.5 16:57:12 10° NNW 17:01:32 64° W 17:05:53 10° S
Cosmos 1151 Rocket 3.3 16:57:40 10° SSW 17:02:00 69° WNW 17:06:23 10° N
Meteor 1-27 Rocket 4.1 16:57:10 10° SSE 17:02:11 37° E 17:04:00 29° NE
USA 306 2.8 16:58:01 10° WNW 17:02:17 80° NNE 17:03:51 38° ESE
Cosmos 1666 3.6 16:59:41 10° NNW 17:03:17 47° W 17:06:51 10° S
Cosmos 1782 4.5 17:00:36 10° SW 17:04:14 33° WNW 17:07:53 10° N
Landsat 5 4.1 17:05:03 34° ESE 17:05:03 34° ESE 17:08:05 10° SSE
APEX 3.2 17:01:07 10° S 17:04:23 44° SE 17:04:23 44° SE
Meteor 2-6 Rocket 4.1 16:59:20 10° S 17:05:03 83° E 17:10:38 10° NNE
Cosmos 2360 Rocket 2.5 17:00:52 10° NNW 17:06:17 43° NE 17:08:17 32° E
SJ-11-01 4.2 17:01:43 10° SSE 17:06:25 70° ENE 17:11:09 10° N
ISS -0.5 17:05:57 10° WSW 17:07:13 12° SW 17:08:30 10° SSW
YAOGAN 1 3.9 17:11:21 24° NNE 17:11:21 24° NNE 17:13:21 10° N
Cosmos 1900 4.3 17:04:35 10° SW 17:09:28 82° NW 17:11:53 30° NNE
Cosmos 2237 4.2 17:03:56 10° NNW 17:09:36 59° ENE 17:13:44 18° SE
Cosmos 1818 4.3 17:06:46 10° NW 17:12:06 53° WSW 17:17:22 10° SSE
CZ-2C R/B 3.8 17:16:16 10° SSW 17:17:43 12° S 17:19:10 10° SSE
Cosmos 2279 Rocket 4.3 17:11:57 10° SSW 17:18:07 66° WNW 17:24:19 10° N
Cosmos 1536 4.4 17:14:53 10° N 17:16:30 22° N 17:16:30 22° N
ATLAS 5 CENTAUR R/B 1.7 17:12:32 10° NW 17:19:09 89° NE 17:19:39 63° SE
Meteor 2-15 4.3 17:14:17 10° S 17:20:24 86° E 17:26:31 10° N
Cosmos 2266 Rocket 4.0 17:14:15 10° N 17:20:41 86° E 17:27:07 10° S
ERBS 4.2 17:19:13 10° NW 17:20:46 20° NNW 17:20:46 20° NNW
USA 307 2.8 17:18:35 10° WNW 17:22:52 88° SSW 17:23:33 62° ESE
CZ-4C R/B 4.2 17:16:16 10° NW 17:23:08 44° WSW 17:30:59 10° S
SL-08 RB Rocket 3.6 17:20:31 10° SSE 17:25:07 73° ENE 17:29:42 10° N
SKYMED 3 4.4 17:23:34 36° NNE 17:25:21 88° E 17:29:42 10° SSW
Lacrosse 5 rocket 2.9 17:22:04 10° WNW 17:25:39 33° SW 17:28:57 12° SSE
NOSS 3-4 (A) 4.2 17:21:00 10° NW 17:27:21 43° NNE 17:28:52 38° ENE
NOSS 3-4 (C) 4.2 17:21:07 10° NW 17:27:26 42° NNE 17:28:56 38° ENE
Cosmos 1933 Rocket 3.4 17:24:20 10° N 17:28:42 88° W 17:33:03 10° S
Cosmos 2322 Rocket 2.1 17:23:19 10° NNW 17:29:04 90° NE 17:34:48 10° SSE
USA 234 3.7 17:23:12 10° SE 17:29:39 60° SW 17:36:07 10° WNW
ATLAS 2AS CENTAUR R/B 3.7 17:23:23 10° NW 17:29:56 31° NNE 17:31:18 29° NE
COSMOS 2428 4.0 17:25:14 10° NNW 17:28:44 25° NNE 17:28:44 25° NNE
Cosmos 1328 Rocket 4.5 17:27:50 10° SSW 17:32:08 48° WNW 17:36:01 13° N
NOAA 15 4.5 17:28:47 10° SSE 17:34:01 67° ENE 17:39:15 10° N
Cosmos 1470 Rocket 4.5 17:30:21 10° NNW 17:34:41 50° W 17:39:00 10° SSW
Cosmos 1544 3.8 17:31:18 10° NNW 17:34:50 52° W 17:38:22 10° S
Cosmos 1125 Rocket 4.1 17:31:44 10° NNW 17:36:54 57° WSW 17:42:03 10° S
Cosmos 1867 3.6 17:32:57 10° SSW 17:38:17 58° ESE 17:38:27 57° ESE
NOSS 3-3 (A) 4.2 17:33:11 10° S 17:38:22 44° SE 17:38:22 44° SE
NOSS 3-3 (C) 4.2 17:33:17 10° S 17:38:27 44° SE 17:38:27 44° SE
H-2A R/B 3.3 17:34:08 10° SSW 17:38:54 39° W 17:43:36 10° NNW
X-37B 3.1 17:37:00 10° SW 17:37:49 15° SSW 17:37:49 15° SSW
Okean O Rocket 2.2 17:36:11 10° S 17:40:34 58° W 17:45:00 10° NNW
GEOS 3 Rocket 3.7 17:41:55 56° NE 17:41:55 56° NE 17:46:54 10° NW
Meteor 1-11 Rocket 4.0 17:36:18 10° NNW 17:41:55 70° W 17:47:39 10° S
Meteor 1-10 Rocket 4.4 17:36:30 10° SSW 17:42:13 70° WNW 17:47:11 14° N
USA 32 3.9 17:38:50 10° S 17:44:03 86° E 17:46:22 35° N
ATLAS CENTAUR R/B 4.0 17:43:02 10° NNW 17:44:13 12° N 17:44:13 12° N
USA 308 3.1 17:41:18 10° WNW 17:45:21 66° SW 17:45:21 66° SW
SKYMED 2 4.2 17:47:47 36° NNW 17:49:16 54° WNW 17:53:30 10° SSW
SL-16 R/B 3.0 17:44:03 10° NW 17:49:32 51° WSW 17:54:59 10° S
ARGOS 3.9 17:45:25 10° S 17:50:41 53° W 17:56:00 10° NNW
Cosmos 2237 Rocket 4.2 17:47:40 10° N 17:49:03 14° N 17:49:03 14° N
Cosmos 2082 Rocket 3.8 17:48:40 10° WSW 17:53:33 29° NW 17:56:57 17° N
Cosmos 1241 Rocket 4.3 17:55:30 10° SSW 18:01:51 74° SE 18:01:58 74° ESE
COSMOS 2455 4.4 17:57:08 10° W 18:02:18 29° NW 18:04:54 21° N
USA 305 4.2 18:05:42 10° WNW 18:08:52 37° WSW 18:08:52 37° WSW
Cosmos 2333 Rocket 2.8 18:03:58 10° NNW 18:08:05 45° N 18:08:05 45° N
CZ-2C R/B 3.6 18:06:50 18° N 18:10:15 42° WNW 18:15:06 10° SW
Cosmos 2219 Rocket 3.3 18:11:55 10° NNW 18:15:05 33° N 18:15:05 33° N
Aureole 3 Rocket 4.2 18:13:52 10° SSW 18:18:33 57° WNW 18:25:13 10° N
USA 267 3.6 18:37:47 54° NNW 18:37:47 54° NNW 18:44:06 10° W
Cosmos 2360 Rocket 3.4 18:45:03 10° NW 18:50:08 37° WSW 18:50:08 37° WSW
ATLAS 2AS CENTAUR R/B 4.1 19:14:52 10° NW 19:18:45 33° NNW 19:18:45 33° NNW
